G0UBK Weather Reports


Display with metric or nautical units.
time (UTC)temp
F
wind
direction
speed
MPH
gust
MPH
rain 1hr
in
rain 24hr
in
rain mn
in
humidity
%
barometer
mb
20260507161557 52 173 2.0 8.0 0.00 0.00 0.00 78 1015.5
20260507160050 52 89 2.0 11.0 0.00 0.00 0.00 78 1015.5
20260507154555 53 115 1.0 7.0 0.00 0.00 0.00 75 1015.6
20260507153102 55 116 1.0 9.0 0.00 0.00 0.00 65 1015.6
20260507151552 55 115 3.0 9.0 0.00 0.00 0.00 62 1015.5
20260507150105 55 98 2.0 12.0 0.00 0.00 0.00 62 1015.6
20260507144549 56 233 3.0 8.0 0.00 0.00 0.00 62 1015.7
20260507143103 56 217 2.0 11.0 0.00 0.00 0.00 62 1015.7
20260507141557 56 237 3.0 8.0 0.00 0.00 0.00 62 1015.7
20260507140101 57 162 3.0 5.0 0.00 0.00 0.00 60 1015.8
20260507134553 57 319 2.0 8.0 0.00 0.00 0.00 60 1015.8
20260507133051 58 274 1.0 8.0 0.00 0.00 0.00 61 1015.8
20260507131551 58 118 2.0 8.0 0.00 0.00 0.00 59 1015.8
20260507124552 58 160 0.0 0.0 0.00 0.00 0.00 61 1015.7
20260507123049 56 123 9.0 0.0 0.00 0.00 0.00 60 1015.6
20260507121554 56 136 3.0 9.0 0.00 0.00 0.00 59 1015.6
20260507120056 55 160 3.0 10.0 0.00 0.00 0.00 64 1015.8
20260507114551 54 96 3.0 10.0 0.00 0.00 0.00 64 1016.0
20260507113052 53 101 5.0 10.0 0.00 0.00 0.00 65 1016.1
20260507111551 53 122 3.0 9.0 0.00 0.00 0.00 66 1016.3
20260507110059 54 138 3.0 0.0 0.00 0.00 0.00 66 1016.4
20260507104555 54 0.0 0.0 0.00 0.00 0.00 65 1016.4
20260507103115 54 0.0 0.0 0.00 0.00 0.00 66 1016.5
20260507101553 53 226 6.0 0.0 0.00 0.00 0.00 66 1016.4
20260507100107 53 103 3.0 9.0 0.00 0.00 0.00 66 1016.6
20260507094549 53 65 2.0 9.0 0.00 0.00 0.00 67 1016.5
20260507093045 52 131 4.0 12.0 0.00 0.00 0.00 68 1016.5
20260507091550 51 190 5.0 14.0 0.00 0.00 0.00 68 1016.5
20260507090054 51 217 3.0 9.0 0.00 0.00 0.00 69 1016.6
20260507084548 51 164 2.0 10.0 0.00 0.00 0.00 70 1016.6
20260507083049 50 146 4.0 9.0 0.00 0.00 0.00 71 1016.6
20260507081555 50 139 3.0 10.0 0.00 0.00 0.00 72 1016.5
20260507080055 49 90 4.0 11.0 0.00 0.00 0.00 73 1016.7
20260507074548 49 93 2.0 7.0 0.00 0.00 0.00 74 1016.7
20260507073049 49 133 4.0 9.0 0.00 0.00 0.00 74 1016.6
20260507071559 48 131 2.0 6.0 0.00 0.00 0.00 76 1016.7
20260507064556 46 162 1.0 3.0 0.00 0.00 0.00 77 1016.7
20260507063048 45 125 1.0 3.0 0.00 0.00 0.00 79 1016.7
20260507061552 44 118 1.0 4.0 0.00 0.00 0.00 81 1016.6
20260507060058 42 127 1.0 4.0 0.00 0.00 0.00 83 1016.5
20260507054607 40 98 1.0 3.0 0.00 0.00 0.00 85 1016.4
20260507053103 38 118 1.0 3.0 0.00 0.00 0.00 85 1016.4
20260507051555 37 132 0.0 5.0 0.00 0.00 0.00 86 1016.4
20260507050050 37 124 1.0 4.0 0.00 0.00 0.00 86 1016.5
20260507044554 37 154 0.0 4.0 0.00 0.02 0.00 86 1016.4
20260507043047 38 112 0.0 3.0 0.00 0.02 0.00 87 1016.3
20260507041600 37 0 0.0 1.0 0.00 0.02 0.00 88 1016.1
20260507040052 36 0 0.0 2.0 0.00 0.02 0.00 87 1016.3
20260507034548 36 148 1.0 3.0 0.00 0.02 0.00 87 1016.3
20260507033048 36 0 0.0 2.0 0.00 0.02 0.00 87 1016.3
20260507031548 35 139 0.0 2.0 0.00 0.02 0.00 87 1016.5
20260507030052 35 0 0.0 1.0 0.00 0.02 0.00 87 1016.5
20260507024552 34 123 1.0 5.0 0.00 0.02 0.00 86 1016.4
20260507023051 36 124 0.0 4.0 0.00 0.02 0.00 86 1016.4
20260507021600 36 103 0.0 2.0 0.00 0.02 0.00 85 1016.5
20260507020108 36 154 0.0 3.0 0.00 0.02 0.00 85 1016.5
20260507014617 37 126 0.0 3.0 0.00 0.02 0.00 85 1016.4
20260507013050 37 159 0.0 2.0 0.00 0.02 0.00 86 1016.5
20260507011558 37 117 0.0 2.0 0.00 0.02 0.00 86 1016.6
20260507010055 36 0 0.0 2.0 0.00 0.02 0.00 86 1016.6
20260507004549 36 165 0.0 1.0 0.00 0.02 0.00 87 1016.5
20260507003047 36 144 1.0 2.0 0.00 0.02 0.00 86 1016.5
20260507001602 36 131 0.0 2.0 0.00 0.02 0.00 86 1016.6
20260507000106 36 140 0.0 2.0 0.00 0.02 0.00 84 1016.5
20260506234613 38 163 0.0 1.0 0.00 0.02 0.00 84 1016.6
20260506233053 38 0 0.0 1.0 0.00 0.02 0.00 83 1016.8
20260506231545 39 145 0.0 1.0 0.00 0.02 0.00 83 1016.8
20260506224552 39 210 0.0 2.0 0.00 0.02 0.02 84 1016.6
20260506223044 39 0 0.0 1.0 0.00 0.02 0.02 83 1016.7
20260506221555 40 112 0.0 1.0 0.00 0.02 0.02 83 1016.7
20260506220049 40 0 0.0 1.0 0.00 0.02 0.02 82 1016.8
20260506214546 40 0 0.0 2.0 0.00 0.02 0.02 82 1016.7
20260506213054 41 188 0.0 1.0 0.00 0.02 0.02 81 1016.8
20260506211553 41 0 0.0 1.0 0.00 0.02 0.02 79 1016.8
20260506210049 42 0 0.0 2.0 0.00 0.02 0.02 78 1016.9
20260506204551 43 0 0.0 1.0 0.00 0.02 0.02 78 1016.6
20260506203047 44 127 0.0 3.0 0.00 0.02 0.02 77 1016.9
20260506201545 44 0 0.0 1.0 0.00 0.02 0.02 76 1016.8
20260506200051 44 139 0.0 1.0 0.00 0.02 0.02 75 1016.7
20260506194546 45 0 0.0 1.0 0.00 0.02 0.02 73 1016.7
20260506193055 46 0 0.0 3.0 0.00 0.02 0.02 71 1016.5
20260506191559 47 83 0.0 4.0 0.00 0.02 0.02 71 1016.6
20260506190052 47 87 0.0 6.0 0.00 0.02 0.02 70 1016.4
20260506184556 48 105 0.0 4.0 0.00 0.02 0.02 69 1016.4
20260506183102 48 102 1.0 4.0 0.00 0.02 0.02 68 1016.5
20260506181603 48 0 0.0 3.0 0.00 0.02 0.02 68 1016.4
20260506180054 48 0 0.0 3.0 0.00 0.02 0.02 68 1016.3
20260506174545 49 57 0.0 4.0 0.00 0.02 0.02 67 1016.2
20260506173119 49 88 0.0 5.0 0.00 0.02 0.02 67 1016.3
20260506171556 47 76 0.0 5.0 0.00 0.02 0.02 67 1016.4
20260506170109 48 134 1.0 8.0 0.00 0.02 0.02 67 1016.3
20260506164552 48 37 1.0 5.0 0.00 0.02 0.02 68 1016.4
20260506163056 48 320 2.0 7.0 0.00 0.02 0.02 68 1016.4